[[{"header":{"parameterUnit":"m.s-1","parameterCategory":1,"la1":30.2991,"la2":30.254,"lo1":-89.0895,"lo2":-89.0444,"dx":0.0017,"dy":0.0017,"nx":28,"ny":28,"refTime":"2022-11-18T15:00:00:Z","depth":0,"parameterNumber":2,"parameterNumberName":"U-component_of_WINDS"},"data":[0,0,0,0,0,0,0,0,0,0,0,0,0,0,0,0,0,0,0,0,0,0,0,0,0,0,0,0,0,0,0,0,0,0,0,0,0,0,0,0,0,0,0,0,0,0,0,0,0,0,0,0,0,0,0,0,0,0,-3.8324,-3.8324,0,-3.8347,-3.8348,-3.8348,-3.822,-3.8217,-3.8213,-3.821,-3.8235,-3.8239,-3.8243,0,0,0,0,0,0,0,0,0,0,0,0,0,-3.8169,-3.8172,-3.8324,-3.8324,-3.8324,-3.8347,-3.8348,-3.8348,-3.8221,-3.8217,-3.8212,-3.8208,-3.8234,-3.8239,-3.8244,0,0,0,0,0,0,0,0,0,0,0,0,0,-3.8219,-3.8173,-3.8323,-3.8264,-3.8258,-3.8347,-3.8348,-3.8348,-3.8222,-3.8216,-3.8211,-3.8206,-3.8232,-3.8238,-3.8245,-3.8393,0,0,-3.8263,-3.8266,0,0,0,0,0,0,0,0,-3.8216,-3.8224,-3.8272,-3.8268,-3.8262,-3.8275,-3.8302,-3.8363,-3.8223,-3.8236,-3.821,-3.8203,-3.8253,-3.8257,-3.8274,-3.8394,-3.8395,-3.8264,-3.8268,-3.827,-3.8272,0,0,0,0,0,0,0,-3.8213,-3.8223,-3.8333,-3.8273,-3.8267,-3.8236,-3.8237,-3.8313,-3.8275,-3.8234,-3.8225,-3.823,-3.8249,-3.8268,-3.8274,-3.8395,-3.8264,-3.8269,-3.8273,-3.8275,-3.8638,-3.8643,0,0,0,0,0,0,-3.8217,-3.8221,-3.8332,-3.8334,-3.8225,-3.8243,-3.8244,-3.8277,-3.8274,-3.8268,-3.8234,-3.8224,-3.826,-3.8267,-3.8274,-3.8448,-3.827,-3.8276,-3.8279,-3.8632,-3.8639,-3.8645,0,0,0,0,0,0,-3.8214,-3.8228,-3.8331,-3.8275,-3.8285,-3.8251,-3.8289,-3.828,-3.8299,-3.8274,-3.8266,-3.8261,-3.8256,-3.8265,-3.8364,-3.8447,-3.8279,-3.8284,-3.8625,-3.8634,-3.8642,-3.8796,0,0,0,0,0,0,-3.821,-3.8228,-3.8284,-3.8277,-3.8289,-3.8421,-3.8294,-3.8284,-3.8309,-3.8296,-3.8297,-3.8291,-3.8253,-3.8355,-3.837,-3.8452,-3.8289,-3.8617,-3.8629,-3.8639,-3.8784,-3.8809,-3.8831,0,0,0,0,0,-3.8205,-3.8327,-3.8287,-3.8302,-3.8358,-3.8426,-3.8433,-3.8386,-3.8317,-3.8373,-3.8357,-3.8291,-3.8435,-3.8367,-3.8382,-3.8467,-3.8612,-3.8625,-3.8638,-3.8773,-3.8804,-3.8831,0,0,0,0,0,0,-3.8345,-3.8325,-3.8281,-3.8404,-3.8418,-3.8405,-3.8474,-3.842,-3.8455,-3.844,-3.838,-3.8382,-3.8491,-3.8488,-3.8413,-3.861,-3.8511,-3.8528,-3.8608,-3.8638,-3.8661,-3.866,-3.8294,0,0,0,0,0,-3.839,-3.8447,-3.8426,-3.8536,-3.8545,-3.8509,-3.8537,-3.8499,-3.8511,-3.8516,-3.8507,-3.8522,-3.857,-3.8603,-3.8646,-3.8782,-3.878,-3.8848,-3.8872,-3.8891,-3.8907,-3.8979,-3.9009,-3.8689,-3.8689,-3.8689,0,0,-3.8484,-3.8479,-3.8519,-3.8564,-3.857,-3.8631,-3.8515,-3.8583,-3.8628,-3.8527,-3.862,-3.8614,-3.8626,-3.8744,-3.8795,-3.8745,-3.8995,-3.8908,-3.8924,-3.893,-3.8996,-3.9026,-3.9053,-3.8698,-3.8697,-3.8695,0,0,-3.8686,-3.8688,-3.878,-3.8789,-3.88,-3.8774,-3.8797,-3.8792,-3.8784,-3.8876,-3.8801,-3.8853,-3.8937,-3.8949,-3.8966,-3.9172,-3.9114,-3.9187,-3.9313,-3.9383,-3.9409,-3.9431,-3.9505,-3.9533,-3.9203,-3.9203,-3.9204,0,-3.8801,-3.8889,-3.8835,-3.8909,-3.8931,-3.8841,-3.8934,-3.8945,-3.897,-3.8988,-3.8931,-3.9034,-3.9036,-3.9156,-3.9206,-3.9223,-3.9247,-3.9188,-3.9409,-3.9431,-3.9451,-3.9521,-3.9549,-3.9212,-3.9211,-3.9211,-3.921,0,-3.9031,-3.9093,-3.9167,-3.9192,-3.9222,-3.9306,-3.9264,-3.9301,-3.926,-3.9241,-3.9336,-3.9335,-3.9376,-3.9401,-3.9362,-3.9516,-3.9484,-3.9419,-3.9319,-3.9491,-3.9556,-3.9583,-3.9225,-3.9222,-3.9219,-3.9217,0,0,-3.9324,-3.9318,-3.9346,-3.9356,-3.9361,-3.9408,-3.9487,-3.9527,-3.956,-3.958,-3.9645,-3.9718,-3.9658,-3.9678,-3.9639,-3.9701,-3.9865,-3.9628,-3.9627,-3.9673,-4.0035,-4.0085,-4.0117,-3.9825,-3.983,-3.9834,-4.0034,0,-3.9523,-3.9658,-3.9611,-3.9748,-3.9805,-3.972,-3.9789,-3.98,-3.9784,-3.983,-3.9811,-3.9865,-3.9781,-3.9792,-3.9849,-3.9833,-3.9937,-3.9818,-3.9887,-3.989,-3.9888,-4.0151,-4.0204,-4.0393,-4.0059,-4.0064,-4.0067,0,-3.9773,-3.9803,-3.9947,-3.9941,-3.9963,-4.0026,-4.0059,-4.0104,-4.0114,-4.0098,-4.0119,-4.0067,-4.0144,-4.0043,-4.0149,-4.0069,-4.0094,-4.009,-4.0096,-4.0102,-3.999,-4.0166,-4.0452,-4.0482,-4.0106,-4.0103,-4.01,0,-3.9974,-4.005,-4.0145,-4.0157,-4.0153,-4.0199,-4.02,-4.0204,-4.0231,-4.0259,-4.0276,-4.0314,-4.0335,-4.0365,-4.0324,-4.0253,-4.0436,-4.0331,-4.0426,-4.0427,-4.047,-4.0468,-4.0767,-4.0484,-4.0483,-4.0483,-4.0482,0,-4.0203,-4.0294,-4.0236,-4.0295,-4.0395,-4.0339,-4.044,-4.0431,-4.0435,-4.0491,-4.0419,-4.0473,-4.0415,-4.0464,-4.0432,-4.0526,-4.0535,-4.0525,-4.0516,-4.0533,-4.0534,-4.0549,-4.0536,-4.049,-4.0489,-4.0487,-4.0486,0,-4.0445,-4.0409,-4.0508,-4.0496,-4.0495,-4.0569,-4.0559,-4.0613,-4.0591,-4.0663,-4.0676,-4.0642,-4.0696,-4.0658,-4.0711,-4.069,-4.0813,-4.0784,-4.081,-4.0803,-4.09,-4.0892,-4.122,-4.1261,-4.0951,-4.0954,-4.0956,0,-4.0594,-4.0662,-4.0657,-4.0689,-4.0695,-4.0747,-4.0774,-4.0721,-4.0752,-4.0769,-4.0821,-4.0868,-4.0904,-4.0993,-4.0974,-4.1014,-4.0987,-4.1099,-4.0993,-4.1007,-4.099,-4.0987,-4.0994,-4.1121,-4.1125,-4.1128,-4.113,0,-4.0863,-4.0841,-4.0883,-4.0919,-4.0952,-4.0978,-4.0998,-4.1028,-4.0974,-4.1013,-4.1067,-4.1094,-4.1148,-4.1196,-4.1229,-4.1229,-4.1172,-4.1163,-4.1188,-4.1207,-4.1219,-4.1215,-4.087,-4.1157,-4.1154,-4.1152,-4.1151,-4.115,-4.1064,-4.1121,-4.1126,-4.1175,-4.1183,-4.1203,-4.1254,-4.1238,-4.1282,-4.1321,-4.1287,-4.1352,-4.1359,-4.1397,-4.1405,-4.1455,-4.1409,-4.1444,-4.1453,-4.1463,-4.1477,-4.121,-4.146,-4.146,-4.1459,-4.1458,-4.1457,0,-4.133,-4.1329,-4.1374,-4.1403,-4.1442,-4.1382,-4.1401,-4.1437,-4.1495,-4.1506,-4.1542,-4.1604,-4.165,-4.1633,-4.1674,-4.1717,-4.1692,-4.173,-4.1727,-4.1728,-4.1515,-4.1491,-4.175,-4.175,-4.175,-4.175,-4.175,-4.175,-4.1473,-4.1567,-4.1546,-4.1643,-4.164,-4.1703,-4.1719,-4.1737,-4.1746,-4.1818,-4.1856,-4.1844,-4.1845,-4.1885,-4.1924,-4.1918,-4.1937,-4.1985,-4.197,-4.1772,-4.1743,-4.1716,-4.1693,-4.199,-4.199,-4.2179,-4.2181,-4.2182]},{"header":{"parameterUnit":"m.s-1","parameterCategory":1,"la1":30.2991,"la2":30.254,"lo1":-89.0895,"lo2":-89.0444,"dx":0.0017,"dy":0.0017,"nx":28,"ny":28,"refTime":"2022-11-18T15:00:00:Z","depth":0,"parameterNumber":3,"parameterNumberName":"V-component_of_WINDS"},"data":[0,0,0,0,0,0,0,0,0,0,0,0,0,0,0,0,0,0,0,0,0,0,0,0,0,0,0,0,0,0,0,0,0,0,0,0,0,0,0,0,0,0,0,0,0,0,0,0,0,0,0,0,0,0,0,0,0,0,-6.6142,-6.6142,0,-6.6186,-6.6186,-6.6187,-6.6082,-6.6079,-6.6075,-6.6072,-6.6114,-6.6118,-6.6122,0,0,0,0,0,0,0,0,0,0,0,0,0,-6.5963,-6.5967,-6.6142,-6.6142,-6.6143,-6.6186,-6.6186,-6.6187,-6.6082,-6.6078,-6.6074,-6.6071,-6.6113,-6.6118,-6.6123,0,0,0,0,0,0,0,0,0,0,0,0,0,-6.6027,-6.5968,-6.6142,-6.6096,-6.6092,-6.6186,-6.6186,-6.6187,-6.6083,-6.6078,-6.6073,-6.6069,-6.6111,-6.6117,-6.6123,-6.6262,0,0,-6.6143,-6.6145,0,0,0,0,0,0,0,0,-6.6024,-6.6034,-6.6102,-6.6099,-6.6095,-6.6123,-6.6138,-6.6212,-6.6085,-6.6087,-6.6072,-6.6066,-6.6121,-6.6126,-6.6145,-6.6264,-6.6265,-6.6143,-6.6147,-6.615,-6.6151,0,0,0,0,0,0,0,-6.6019,-6.6031,-6.6159,-6.6103,-6.6099,-6.6072,-6.6075,-6.6152,-6.6131,-6.6086,-6.6079,-6.6085,-6.6118,-6.6139,-6.6145,-6.6266,-6.6143,-6.6149,-6.6152,-6.6155,-6.6498,-6.6503,0,0,0,0,0,0,-6.6021,-6.6028,-6.6157,-6.616,-6.6047,-6.6079,-6.6083,-6.6119,-6.613,-6.6127,-6.609,-6.608,-6.6131,-6.6138,-6.6146,-6.6308,-6.615,-6.6156,-6.6159,-6.6493,-6.6499,-6.6505,0,0,0,0,0,0,-6.6018,-6.6034,-6.6156,-6.6092,-6.6106,-6.6088,-6.6129,-6.6123,-6.6144,-6.6133,-6.6128,-6.6116,-6.6127,-6.6138,-6.6234,-6.6308,-6.6158,-6.6164,-6.6487,-6.6495,-6.6502,-6.6633,0,0,0,0,0,0,-6.6013,-6.6033,-6.6087,-6.6094,-6.611,-6.6244,-6.6134,-6.6127,-6.6155,-6.6144,-6.6156,-6.6153,-6.6124,-6.6225,-6.624,-6.6314,-6.6169,-6.648,-6.649,-6.65,-6.6622,-6.6644,-6.6664,0,0,0,0,0,-6.6007,-6.6121,-6.609,-6.6106,-6.6176,-6.6249,-6.6257,-6.6223,-6.6162,-6.6215,-6.6207,-6.6152,-6.6298,-6.6236,-6.6252,-6.6329,-6.6475,-6.6487,-6.6499,-6.6613,-6.664,-6.6663,0,0,0,0,0,0,-6.6122,-6.6122,-6.6087,-6.6207,-6.6229,-6.6231,-6.6296,-6.6253,-6.6292,-6.6279,-6.6234,-6.6237,-6.6342,-6.6344,-6.6276,-6.6462,-6.6376,-6.6392,-6.6456,-6.6482,-6.6503,-6.65,-6.6174,0,0,0,0,0,-6.6162,-6.6222,-6.6217,-6.6324,-6.6337,-6.6315,-6.6345,-6.6317,-6.6337,-6.6345,-6.6345,-6.6365,-6.6415,-6.6449,-6.6494,-6.6622,-6.6622,-6.6683,-6.6704,-6.6721,-6.6735,-6.6801,-6.6827,-6.6545,-6.6545,-6.6544,0,0,-6.6244,-6.6251,-6.6291,-6.6347,-6.6361,-6.6422,-6.6323,-6.6393,-6.6438,-6.6355,-6.6446,-6.6447,-6.6466,-6.6578,-6.6628,-6.6584,-6.6813,-6.6736,-6.675,-6.6754,-6.6816,-6.6843,-6.6866,-6.6553,-6.6551,-6.655,0,0,-6.6424,-6.6437,-6.6526,-6.6542,-6.6563,-6.6548,-6.657,-6.6578,-6.6575,-6.6666,-6.6605,-6.6657,-6.6744,-6.676,-6.678,-6.6966,-6.6917,-6.6982,-6.7091,-6.7156,-6.7178,-6.7198,-6.7263,-6.7287,-6.6996,-6.6997,-6.6997,0,-6.6523,-6.6615,-6.6577,-6.6651,-6.6677,-6.6606,-6.6695,-6.6711,-6.6747,-6.6765,-6.6716,-6.6824,-6.6832,-6.6946,-6.6992,-6.701,-6.7032,-6.698,-6.7178,-6.7197,-6.7215,-6.7276,-6.7301,-6.7004,-6.7003,-6.7003,-6.7002,0,-6.6734,-6.6799,-6.6868,-6.6905,-6.6938,-6.702,-6.6993,-6.7031,-6.7,-6.6989,-6.7081,-6.7089,-6.7134,-6.7159,-6.7129,-6.7269,-6.7241,-6.7186,-6.7098,-6.725,-6.7307,-6.733,-6.7015,-6.7013,-6.701,-6.7008,0,0,-6.6989,-6.7003,-6.703,-6.7045,-6.7063,-6.7111,-6.7188,-6.7233,-6.7266,-6.7293,-6.7355,-6.7431,-6.738,-6.7402,-6.7373,-6.743,-6.7575,-6.7368,-6.7367,-6.7405,-6.7728,-6.7768,-6.7797,-6.7543,-6.7547,-6.7551,-6.7726,0,-6.7167,-6.7301,-6.7268,-6.74,-6.7458,-6.7391,-6.7458,-6.7476,-6.7468,-6.7515,-6.7505,-6.7559,-6.7488,-6.7501,-6.7555,-6.7546,-6.7639,-6.7533,-6.7599,-6.7602,-6.7595,-6.7826,-6.787,-6.8035,-6.7748,-6.7752,-6.7754,0,-6.7392,-6.7428,-6.7566,-6.7573,-6.7596,-6.7658,-6.7695,-6.7742,-6.7759,-6.7749,-6.7775,-6.7734,-6.7808,-6.7721,-6.7822,-6.775,-6.7775,-6.7775,-6.778,-6.7784,-6.7687,-6.7836,-6.8087,-6.8111,-6.7789,-6.7787,-6.7784,0,-6.7562,-6.7645,-6.7738,-6.7753,-6.7765,-6.7809,-6.7815,-6.7828,-6.7857,-6.789,-6.7907,-6.7949,-6.7971,-6.8003,-6.7973,-6.7912,-6.8079,-6.7989,-6.8071,-6.8072,-6.8108,-6.8106,-6.8366,-6.8127,-6.8126,-6.8126,-6.8125,0,-6.7764,-6.785,-6.7814,-6.7871,-6.7966,-6.7927,-6.8021,-6.802,-6.8032,-6.8086,-6.8031,-6.8083,-6.8041,-6.8089,-6.8067,-6.8153,-6.8164,-6.8157,-6.815,-6.8161,-6.8162,-6.8176,-6.8164,-6.8132,-6.8131,-6.8129,-6.8128,0,-6.797,-6.7949,-6.8046,-6.8049,-6.8052,-6.8121,-6.8123,-6.8175,-6.8162,-6.8232,-6.8246,-6.8226,-6.828,-6.8254,-6.831,-6.8294,-6.8405,-6.8383,-6.84,-6.8393,-6.8477,-6.8469,-6.8754,-6.8789,-6.8528,-6.8531,-6.8533,0,-6.8099,-6.8164,-6.8174,-6.8207,-6.8218,-6.8272,-6.8301,-6.8265,-6.8297,-6.8322,-6.8371,-6.8419,-6.8456,-6.8545,-6.8534,-6.8576,-6.8554,-6.8651,-6.856,-6.8569,-6.8554,-6.855,-6.8556,-6.8669,-6.8672,-6.8675,-6.8677,0,-6.833,-6.8317,-6.8361,-6.8403,-6.8439,-6.8469,-6.8494,-6.8524,-6.8489,-6.8528,-6.8582,-6.8611,-6.8667,-6.8716,-6.8752,-6.8757,-6.8711,-6.8706,-6.8726,-6.8739,-6.8745,-6.8741,-6.8448,-6.8699,-6.8697,-6.8695,-6.8694,-6.8693,-6.8501,-6.8555,-6.8571,-6.8622,-6.8637,-6.8662,-6.8711,-6.8705,-6.875,-6.8794,-6.8769,-6.8832,-6.8847,-6.8891,-6.8902,-6.895,-6.8911,-6.8942,-6.895,-6.8958,-6.8968,-6.8739,-6.8957,-6.8956,-6.8955,-6.8955,-6.8954,0,-6.8728,-6.8735,-6.8782,-6.882,-6.886,-6.8814,-6.8839,-6.8875,-6.8931,-6.895,-6.8987,-6.9049,-6.9095,-6.9089,-6.9131,-6.9171,-6.915,-6.9183,-6.9179,-6.9181,-6.9001,-6.8978,-6.9198,-6.9198,-6.9198,-6.9198,-6.9198,-6.9198,-6.8851,-6.894,-6.8928,-6.9024,-6.9029,-6.9091,-6.9109,-6.9131,-6.9145,-6.9217,-6.9256,-6.9252,-6.9259,-6.9302,-6.9342,-6.9338,-6.9356,-6.9396,-6.9385,-6.9218,-6.9193,-6.917,-6.9148,-6.9401,-6.9401,-6.956,-6.9562,-6.9563]}]]